Change the Weather History Date:

Tuesday, August 6, 2013

  Actual Average Record
Temperature  
Mean Temperature 94 °F -  
Max Temperature 106 °F 94 °F 108 °F (2003)
Min Temperature 82 °F 74 °F 35 °F (2006)
Cooling Degree Days 29    
Growing Degree Days 44 (Base 50)    
Moisture  
Dew Point 62 °F    
Average Humidity 37    
Maximum Humidity 60    
Minimum Humidity 20    
Precipitation  
Precipitation 0.00 in - - ()
Sea Level Pressure  
Sea Level Pressure 29.86 in    
Wind  
Wind Speed 11 mph (South)    
Max Wind Speed 17 mph    
Max Gust Speed 29 mph    
Visibility 10 miles    
Events      
Averages and records for this station are not official NWS values.
T = Trace of Precipitation, MM = Missing Value Source: NWS Daily Summary

Daily Weather History Graph

Daily Weather History Graph

Search for Another Location

Airport or City:

Trip Planner

Search our weather history database for the weather conditions in past years. The results will help you decide how hot, cold, wet, or windy it might be!

Date:

Astronomy

Aug. 06, 2013 Rise Set
Actual Time 6:47 AM CDT 8:23 PM CDT
Civil Twilight 6:20 AM CDT 8:50 PM CDT
Nautical Twilight 5:48 AM CDT 9:21 PM CDT
Astronomical Twilight 5:15 AM CDT 9:55 PM CDT
Moon 6:36 AM CDT (8/6) 8:03 PM CDT (8/6)
Length of Visible Light 14h 29m
Length of Day
13h 36m
Waning Crescent, 0% of the Moon is Illuminated
Aug 6
Waning Crescent
Aug 6
New
Aug 14
First Quarter
Aug 20
Full
Aug 28
Last Quarter

Hourly Weather History & Observations

Time (CDT) Temp. Heat Index Dew Point Humidity Pressure Visibility Wind Dir Wind Speed Gust Speed Precip Events Conditions
12:52 AM 87.1 °F 86.7 °F 60.1 °F 40% 29.88 in 10.0 mi South 4.6 mph - N/A   Clear
1:52 AM 89.1 °F 90.0 °F 63.0 °F 42% 29.88 in 10.0 mi South 17.3 mph - N/A   Clear
2:52 AM 87.1 °F 88.9 °F 64.9 °F 48% 29.88 in 10.0 mi South 13.8 mph - N/A   Clear
3:52 AM 86.0 °F 87.3 °F 64.0 °F 48% 29.87 in 10.0 mi South 13.8 mph - N/A   Clear
4:52 AM 84.9 °F 86.6 °F 64.9 °F 51% 29.88 in 10.0 mi South 11.5 mph - N/A   Clear
5:52 AM 82.9 °F 85.0 °F 66.0 °F 56% 29.87 in 10.0 mi South 11.5 mph - N/A   Clear
6:15 AM 82.4 °F 84.6 °F 66.2 °F 58% 29.93 in 10.0 mi South 11.5 mph - N/A   Clear
6:52 AM 82.0 °F 84.5 °F 66.9 °F 60% 29.89 in 10.0 mi South 9.2 mph - N/A   Clear
7:52 AM 82.9 °F 85.4 °F 66.9 °F 58% 29.90 in 10.0 mi South 11.5 mph - N/A   Clear
8:52 AM 87.1 °F 90.6 °F 68.0 °F 53% 29.90 in 10.0 mi South 9.2 mph - N/A   Clear
9:52 AM 91.9 °F 93.3 °F 64.0 °F 39% 29.90 in 10.0 mi SSW 13.8 mph 23.0 mph N/A   Clear
10:52 AM 96.1 °F 96.9 °F 62.1 °F 32% 29.90 in 10.0 mi South 11.5 mph - N/A   Partly Cloudy
11:52 AM 99.0 °F 100.5 °F 62.1 °F 30% 29.90 in 10.0 mi SSW 11.5 mph 20.7 mph N/A   Clear
12:52 PM 102.0 °F 102.7 °F 60.1 °F 25% 29.88 in 10.0 mi South 16.1 mph 25.3 mph N/A   Clear
1:52 PM 104.0 °F 105.3 °F 61.0 °F 24% 29.86 in 10.0 mi South 12.7 mph 24.2 mph N/A   Clear
2:52 PM 105.1 °F 105.7 °F 59.0 °F 22% 29.85 in 10.0 mi South 15.0 mph 25.3 mph N/A   Partly Cloudy
3:52 PM 106.0 °F 106.4 °F 59.0 °F 21% 29.83 in 10.0 mi South 12.7 mph 28.8 mph N/A   Partly Cloudy
4:52 PM 104.0 °F 105.3 °F 60.1 °F 24% 29.81 in 10.0 mi South 11.5 mph 24.2 mph N/A   Partly Cloudy
5:52 PM 105.1 °F 105.0 °F 57.9 °F 21% 29.80 in 10.0 mi South 17.3 mph - N/A   Clear
6:52 PM 102.9 °F 101.4 °F 55.0 °F 20% 29.79 in 10.0 mi SSE 12.7 mph 19.6 mph N/A   Clear
7:52 PM 100.0 °F 100.2 °F 59.0 °F 26% 29.78 in 10.0 mi SSE 11.5 mph 20.7 mph N/A   Clear
8:52 PM 98.1 °F 98.6 °F 61.0 °F 29% 29.79 in 10.0 mi SSE 11.5 mph - N/A   Clear
9:52 PM 96.1 °F 96.4 °F 61.0 °F 31% 29.83 in 10.0 mi SSE 8.1 mph - N/A   Clear
10:52 PM 95.0 °F 94.8 °F 60.1 °F 31% 29.84 in 10.0 mi SSE 9.2 mph - N/A   Clear
11:52 PM 93.9 °F 93.6 °F 60.1 °F 32% 29.84 in 10.0 mi South 11.5 mph - N/A   Clear